Jersey, United Kingdom

12:09 AM GMT on February 22, 2017 (GMT +0000)
Jersey

Weather History for EGJJ - November, 2012

Change the Weather History Date:

Thursday, November 22, 2012

  Actual Average Record
Temperature  
Mean Temperature 52 °F -  
Max Temperature 55 °F 47 °F 57 °F (2011)
Min Temperature 48 °F 41 °F 33 °F (1998)
Degree Days  
Heating Degree Days 14    
Growing Degree Days 2 (Base 50)    
Moisture  
Dew Point 48 °F    
Average Humidity 81    
Maximum Humidity 88    
Minimum Humidity 63    
Precipitation  
Precipitation 0.00 in - - ()
Sea Level Pressure  
Sea Level Pressure 29.93 in    
Wind  
Wind Speed 19 mph ()    
Max Wind Speed 31 mph    
Max Gust Speed 41 mph    
Visibility 7.5 miles    
Events      
Averages and records for this station are not official NWS values.
T = Trace of Precipitation, MM = Missing Value Source: Averaged Metar Reports

Daily Weather History Graph

Daily Weather History Graph

Search for Another Location

Airport or City:

Trip Planner

Search our weather history database for the weather conditions in past years. The results will help you decide how hot, cold, wet, or windy it might be!

Date:

Astronomy

Nov. 22, 2012 Rise Set
Actual Time 7:30 AM GMT 4:19 PM GMT
Civil Twilight 6:54 AM GMT 4:55 PM GMT
Nautical Twilight 6:15 AM GMT 5:34 PM GMT
Astronomical Twilight 5:37 AM GMT 6:12 PM GMT
Moon 1:23 PM GMT 1:06 AM GMT
Length of Visible Light 10h 00m
Length of Day
8h 49m
Waxing Gibbous, 69% of the Moon is Illuminated
Nov 22
Waxing Gibbous
Nov 28
Full
Dec 6
Last Quarter
Dec 13
New
Dec 20
First Quarter

Hourly Weather History & Observations

Time (GMT) Temp. Dew Point Humidity Pressure Visibility Wind Dir Wind Speed Gust Speed Precip Events Conditions
12:00 AM 51 °F 47 °F 80% 30.07 in 25 mi SSW 16.1 mph - -   Mostly Cloudy
3:00 AM 51 °F 48 °F 85% 30.05 in 25 mi South 19.6 mph - -   Mostly Cloudy
3:50 AM 51.8 °F 48.2 °F 88% 30.04 in 6.2 mi SSW 20.7 mph - N/A   Mostly Cloudy
4:20 AM 51.8 °F 48.2 °F 88% 30.01 in 6.2 mi SSW 15.0 mph - N/A   Mostly Cloudy
4:50 AM 51.8 °F 48.2 °F 88% 30.01 in 6.2 mi South 19.6 mph - N/A   Scattered Clouds
5:20 AM 51.8 °F 48.2 °F 88% 30.01 in 6.2 mi SSW 17.3 mph - N/A   Partly Cloudy
5:50 AM 51.8 °F 48.2 °F 88% 30.01 in 6.2 mi SSW 24.2 mph - N/A   Partly Cloudy
6:00 AM 52 °F 48 °F 82% 30.03 in 19 mi SSW 20.7 mph - -   Scattered Clouds
6:20 AM 51.8 °F 48.2 °F 88% 30.01 in 6.2 mi SSW 17.3 mph - N/A   Partly Cloudy
6:50 AM 51.8 °F 48.2 °F 88% 30.01 in - SSW 16.1 mph - N/A   Clear
7:20 AM 51.8 °F 48.2 °F 88% 30.01 in - South 18.4 mph - N/A   Clear
7:50 AM 51.8 °F 48.2 °F 88% 30.01 in - South 17.3 mph - N/A   Clear
8:20 AM 51.8 °F 48.2 °F 88% 30.01 in 6.2 mi South 17.3 mph - N/A   Partly Cloudy
8:50 AM 51.8 °F 48.2 °F 88% 30.01 in 6.2 mi South 18.4 mph - N/A   Partly Cloudy
9:00 AM 52 °F 49 °F 84% 30.02 in 16 mi South 20.7 mph - -   Scattered Clouds
9:20 AM 51.8 °F 48.2 °F 88% 30.01 in 6.2 mi South 24.2 mph - N/A   Partly Cloudy
9:50 AM 53.6 °F 48.2 °F 82% 30.01 in 6.2 mi South 27.6 mph - N/A   Partly Cloudy
10:20 AM 53.6 °F 50.0 °F 88% 30.01 in 6.2 mi South 24.2 mph - N/A   Partly Cloudy
10:50 AM 53.6 °F 48.2 °F 82% 29.98 in 6.2 mi South 16.1 mph - N/A   Partly Cloudy
11:20 AM 55.4 °F 50.0 °F 82% 29.98 in 6.2 mi South 17.3 mph - N/A   Partly Cloudy
11:50 AM 55.4 °F 48.2 °F 77% 29.95 in 6.2 mi South 20.7 mph - N/A   Partly Cloudy
12:00 PM 54 °F 48 °F 73% 29.96 in 16 mi South 26.5 mph - -   Scattered Clouds
12:20 PM 55.4 °F 48.2 °F 77% 29.95 in 6.2 mi South 20.7 mph - N/A   Partly Cloudy
12:50 PM 55.4 °F 48.2 °F 77% 29.92 in 6.2 mi South 20.7 mph - N/A   Partly Cloudy
1:20 PM 55.4 °F 46.4 °F 72% 29.92 in 6.2 mi South 21.9 mph - N/A   Partly Cloudy
1:50 PM 55.4 °F 46.4 °F 72% 29.92 in 6.2 mi South 27.6 mph - N/A   Partly Cloudy
2:20 PM 55.4 °F 46.4 °F 72% 29.89 in 6.2 mi South 23.0 mph - N/A   Partly Cloudy
2:50 PM 53.6 °F 46.4 °F 77% 29.89 in - SSW 28.8 mph - N/A   Clear
3:00 PM 55 °F 46 °F 63% 29.88 in 16 mi South 31.1 mph - -   Partly Cloudy
3:20 PM 55.4 °F 46.4 °F 72% 29.86 in - South 21.9 mph 41.4 mph N/A   Clear
3:50 PM 53.6 °F 46.4 °F 77% 29.86 in - South 23.0 mph 35.7 mph N/A   Clear
4:20 PM 53.6 °F 46.4 °F 77% 29.86 in 6.2 mi South 21.9 mph - N/A   Partly Cloudy
4:50 PM 53.6 °F 46.4 °F 77% 29.86 in 6.2 mi South 23.0 mph 36.8 mph N/A   Partly Cloudy
5:20 PM 53.6 °F 46.4 °F 77% 29.86 in 6.2 mi South 19.6 mph 38.0 mph N/A   Partly Cloudy
5:50 PM 53.6 °F 46.4 °F 77% 29.83 in 6.2 mi South 24.2 mph 38.0 mph N/A   Partly Cloudy
6:00 PM 53 °F 47 °F 74% 29.85 in 9 mi South 29.9 mph - -   Overcast
6:20 PM 53.6 °F 48.2 °F 82% 29.83 in 6.2 mi South 25.3 mph 40.3 mph N/A   Scattered Clouds
6:50 PM 53.6 °F 48.2 °F 82% 29.83 in 6.2 mi South 21.9 mph - N/A   Mostly Cloudy
7:20 PM 53.6 °F 48.2 °F 82% 29.83 in 6.2 mi South 28.8 mph - N/A   Mostly Cloudy
7:50 PM 53.6 °F 48.2 °F 82% 29.80 in 6.2 mi South 25.3 mph - N/A   Mostly Cloudy
8:20 PM 53.6 °F 48.2 °F 82% 29.80 in 6.2 mi South 28.8 mph - N/A   Scattered Clouds
8:50 PM 53.6 °F 48.2 °F 82% 29.80 in 6.2 mi South 24.2 mph - N/A   Mostly Cloudy
9:00 PM 53 °F 49 °F 80% 29.79 in 9 mi South 26.5 mph - -   Overcast
9:20 PM 53.6 °F 48.2 °F 82% 29.77 in 6.2 mi South 19.6 mph 36.8 mph N/A   Mostly Cloudy